IW3HBX-13 Weather Reports


Display with metric or nautical units.
time (UTC)temp
F
wind
direction
speed
MPH
gust
MPH
rain 1hr
in
rain 24hr
in
rain mn
in
humidity
%
barometer
mb
20260508043608 56 66 3.0 6.0 0.00 0.00 0.00 86 1015.9
20260508043007 55 72 3.0 5.0 0.00 0.00 0.00 86 1015.8
20260508042408 55 82 3.0 3.0 0.00 0.00 0.00 87 1015.8
20260508041807 55 77 2.0 3.0 0.00 0.00 0.00 87 1015.8
20260508040607 55 65 3.0 5.0 0.00 0.00 0.00 87 1015.8
20260508035407 55 71 3.0 4.0 0.00 0.00 0.00 87 1015.7
20260508034808 55 69 1.0 2.0 0.00 0.00 0.00 87 1015.7
20260508033609 56 63 2.0 5.0 0.00 0.00 0.00 86 1015.7
20260508033008 56 57 3.0 5.0 0.00 0.00 0.00 86 1015.7
20260508032407 56 69 3.0 4.0 0.00 0.00 0.00 86 1015.7
20260508031807 56 63 3.0 5.0 0.00 0.00 0.00 86 1015.6
20260508030607 55 71 3.0 5.0 0.00 0.00 0.00 86 1015.8
20260508025410 55 71 1.0 3.0 0.00 0.00 0.00 88 1015.9
20260508024810 55 67 1.0 3.0 0.00 0.00 0.00 88 1016.0
20260508023607 55 69 1.0 3.0 0.00 0.00 0.00 88 1016.0
20260508023009 55 67 1.0 2.0 0.00 0.00 0.00 87 1016.0
20260508022408 56 67 0.0 2.0 0.00 0.00 0.00 87 1016.0
20260508021807 56 70 2.0 2.0 0.00 0.00 0.00 87 1016.0
20260508021209 56 63 1.0 3.0 0.00 0.00 0.00 86 1016.0
20260508020607 56 65 4.0 5.0 0.00 0.00 0.00 86 1016.0
20260508015407 56 62 3.0 5.0 0.00 0.00 0.00 86 1016.0
20260508014809 56 72 4.0 6.0 0.00 0.00 0.00 86 1016.0
20260508013608 56 68 2.0 4.0 0.00 0.00 0.00 87 1016.0
20260508013008 56 74 3.0 4.0 0.00 0.00 0.00 87 1016.0
20260508012410 57 69 2.0 4.0 0.00 0.00 0.00 87 1016.0
20260508011807 57 74 3.0 4.0 0.00 0.00 0.00 86 1016.0
20260508011208 57 57 3.0 5.0 0.00 0.00 0.00 87 1016.1
20260508010607 57 49 3.0 4.0 0.00 0.00 0.00 87 1016.2
20260508005410 57 60 3.0 5.0 0.00 0.00 0.00 88 1016.0
20260508004810 57 65 3.0 4.0 0.00 0.00 0.00 88 1016.0
20260508003607 57 62 2.0 4.0 0.00 0.00 0.00 89 1016.0
20260508003009 57 39 2.0 5.0 0.00 0.00 0.00 89 1016.1
20260508002407 58 54 1.0 3.0 0.00 0.00 0.00 89 1016.1
20260508001807 58 67 0.0 2.0 0.00 0.00 0.00 89 1016.0
20260508000607 58 61 1.0 3.0 0.00 0.00 0.00 88 1016.0
20260507235409 58 66 3.0 5.0 0.00 0.00 0.00 88 1016.1
20260507234808 58 66 3.0 3.0 0.00 0.00 0.00 88 1016.2
20260507233607 58 67 3.0 4.0 0.00 0.00 0.00 88 1016.4
20260507233009 58 66 2.0 3.0 0.00 0.00 0.00 88 1016.3
20260507232406 58 35 0.0 2.0 0.00 0.00 0.00 89 1016.3
20260507231807 58 356 1.0 2.0 0.00 0.00 0.00 89 1016.1
20260507230610 58 62 1.0 2.0 0.00 0.00 0.00 89 1016.1
20260507225407 59 63 0.0 0.0 0.00 0.00 0.00 88 1016.2
20260507224810 59 64 0.0 2.0 0.00 0.00 0.00 88 1016.3
20260507224210 59 61 1.0 2.0 0.00 0.00 0.00 87 1016.2
20260507223609 59 63 1.0 2.0 0.00 0.00 0.00 87 1016.2
20260507223008 59 68 3.0 4.0 0.00 0.00 0.00 87 1016.1
20260507222409 59 69 3.0 5.0 0.00 0.00 0.00 87 1016.1
20260507221807 59 68 2.0 4.0 0.00 0.00 0.00 87 1016.1
20260507220607 59 68 2.0 3.0 0.00 0.00 0.00 86 1015.9
20260507215408 59 76 2.0 4.0 0.00 0.00 0.00 85 1015.9
20260507214807 60 75 3.0 4.0 0.00 0.00 0.00 85 1015.9
20260507213609 60 65 2.0 4.0 0.00 0.00 0.00 84 1015.8
20260507213009 60 65 3.0 3.0 0.00 0.00 0.00 83 1015.8
20260507212409 60 65 3.0 4.0 0.00 0.00 0.00 82 1015.8
20260507211809 60 62 2.0 3.0 0.00 0.00 0.00 81 1015.8
20260507210610 61 59 1.0 2.0 0.00 0.00 0.00 79 1015.9
20260507205410 61 66 1.0 3.0 0.00 0.00 0.00 78 1015.9
20260507204810 61 66 2.0 3.0 0.00 0.00 0.00 77 1015.8
20260507203608 62 60 3.0 3.0 0.00 0.00 0.00 77 1015.8
20260507203007 62 61 2.0 3.0 0.00 0.00 0.00 77 1015.8
20260507202409 62 70 3.0 4.0 0.00 0.00 0.00 77 1015.8
20260507201810 62 62 3.0 6.0 0.00 0.00 0.00 78 1015.7
20260507200607 62 65 3.0 3.0 0.00 0.00 0.00 78 1015.4
20260507195407 62 74 2.0 3.0 0.00 0.00 0.00 79 1015.5
20260507194810 62 76 2.0 4.0 0.00 0.00 0.00 79 1015.3
20260507193608 62 68 3.0 5.0 0.00 0.00 0.00 79 1015.1
20260507193007 62 66 4.0 6.0 0.00 0.00 0.00 79 1014.9
20260507192407 63 63 4.0 6.0 0.00 0.00 0.00 79 1014.9
20260507191808 63 66 3.0 6.0 0.00 0.00 0.00 78 1014.7
20260507191210 63 61 3.0 5.0 0.00 0.00 0.00 76 1014.6
20260507190607 64 66 3.0 4.0 0.00 0.00 0.00 74 1014.5
20260507185408 64 87 2.0 2.0 0.00 0.00 0.00 73 1014.4
20260507184808 64 79 2.0 4.0 0.00 0.00 0.00 72 1014.2
20260507183607 65 59 2.0 4.0 0.00 0.00 0.00 70 1014.1
20260507183007 65 69 2.0 4.0 0.00 0.00 0.00 70 1014.1
20260507182407 65 72 2.0 4.0 0.00 0.00 0.00 71 1014.0
20260507181807 65 64 3.0 4.0 0.00 0.00 0.00 72 1014.0
20260507180607 66 69 2.0 3.0 0.00 0.00 0.00 71 1013.9
20260507175407 66 75 4.0 5.0 0.00 0.00 0.00 69 1013.6
20260507174810 66 74 3.0 4.0 0.00 0.00 0.00 69 1013.5
20260507173607 66 71 3.0 5.0 0.00 0.00 0.00 69 1013.4
20260507173009 66 74 2.0 4.0 0.00 0.00 0.00 69 1013.3
20260507172407 66 60 3.0 5.0 0.00 0.00 0.00 70 1013.2
20260507171808 66 65 4.0 7.0 0.00 0.00 0.00 70 1013.2
20260507170607 66 56 3.0 8.0 0.00 0.00 0.00 70 1013.2
20260507165409 66 67 5.0 10.0 0.00 0.00 0.00 70 1013.2
20260507164807 67 73 5.0 8.0 0.00 0.00 0.00 68 1013.3
20260507164207 67 83 4.0 8.0 0.00 0.00 0.00 68 1013.1
20260507163607 68 76 3.0 6.0 0.00 0.00 0.00 67 1013.3
20260507163007 68 87 3.0 5.0 0.00 0.00 0.00 65 1013.1
20260507162410 68 67 6.0 9.0 0.00 0.00 0.00 66 1013.2
20260507161807 68 85 4.0 6.0 0.00 0.00 0.00 67 1013.2
20260507161207 68 60 3.0 6.0 0.00 0.00 0.00 68 1013.1
20260507160607 68 64 4.0 6.0 0.00 0.00 0.00 69 1013.1
20260507155407 68 73 4.0 9.0 0.00 0.00 0.00 69 1013.0
20260507154807 68 69 7.0 10.0 0.00 0.00 0.00 68 1013.0
20260507154209 69 63 6.0 10.0 0.00 0.00 0.00 66 1012.9
20260507153607 71 73 3.0 3.0 0.00 0.00 0.00 59 1012.8
20260507153007 70 74 3.0 5.0 0.00 0.00 0.00 58 1012.8
20260507152407 69 76 4.0 6.0 0.00 0.00 0.00 57 1012.8
20260507151808 70 81 4.0 6.0 0.00 0.00 0.00 57 1012.8
20260507151209 70 49 2.0 5.0 0.00 0.00 0.00 55 1012.8
20260507150607 69 64 3.0 5.0 0.00 0.00 0.00 57 1012.8
20260507145407 68 61 3.0 5.0 0.00 0.00 0.00 57 1012.6
20260507144807 68 300 0.0 0.0 0.00 0.00 0.00 59 1012.5
20260507144207 68 290 2.0 2.0 0.00 0.00 0.00 58 1012.6
20260507143607 68 294 3.0 4.0 0.00 0.00 0.00 57 1012.4
20260507143013 67 311 1.0 3.0 0.00 0.00 0.00 58 1012.6
20260507142408 68 313 3.0 5.0 0.00 0.00 0.00 58 1012.5
20260507141812 68 311 4.0 5.0 0.00 0.00 0.00 57 1012.6
20260507141210 68 325 4.0 6.0 0.00 0.00 0.00 56 1012.5
20260507140607 69 308 5.0 8.0 0.00 0.00 0.00 56 1012.7
20260507135407 73 245 3.0 6.0 0.00 0.00 0.00 47 1012.6
20260507134809 74 255 2.0 4.0 0.00 0.00 0.00 47 1012.6
20260507134207 75 209 3.0 5.0 0.00 0.02 0.00 47 1012.5
20260507133609 76 31 2.0 6.0 0.00 0.02 0.00 49 1012.7
20260507133007 74 134 2.0 3.0 0.00 0.03 0.00 50 1012.6
20260507132407 73 228 3.0 7.0 0.00 0.05 0.00 49 1012.5
20260507131810 74 222 3.0 4.0 0.00 0.06 0.00 49 1012.6
20260507131211 73 229 6.0 9.0 0.00 0.06 0.00 47 1012.6
20260507130612 75 221 2.0 4.0 0.00 0.09 0.00 47 1012.7
20260507125407 73 250 2.0 4.0 0.00 0.13 0.00 50 1012.7
20260507124807 74 258 2.0 4.0 0.00 0.13 0.00 50 1012.8
20260507124207 72 247 5.0 8.0 0.00 0.13 0.00 51 1012.7
20260507123608 71 237 2.0 3.0 0.00 0.13 0.00 56 1012.7
20260507123007 70 237 2.0 4.0 0.00 0.13 0.00 55 1012.7
20260507122412 72 235 3.0 5.0 0.00 0.13 0.00 55 1012.8
20260507121813 73 128 2.0 4.0 0.00 0.13 0.00 54 1012.8
20260507121212 74 206 2.0 5.0 0.00 0.13 0.00 53 1012.8
20260507120607 73 209 2.0 5.0 0.00 0.13 0.00 52 1012.9
20260507115407 73 231 1.0 2.0 0.00 0.13 0.00 55 1012.9
20260507114808 73 238 0.0 4.0 0.00 0.13 0.00 56 1013.0
20260507114207 72 130 1.0 3.0 0.00 0.13 0.00 58 1012.9
20260507113607 71 160 1.0 5.0 0.00 0.13 0.00 59 1013.0
20260507113007 71 234 3.0 5.0 0.00 0.13 0.00 60 1013.1
20260507112409 70 226 4.0 5.0 0.00 0.13 0.00 61 1013.1
20260507111813 69 226 2.0 3.0 0.00 0.13 0.00 61 1013.2
20260507111207 69 232 2.0 3.0 0.00 0.13 0.00 60 1013.3
20260507110608 70 218 4.0 6.0 0.00 0.13 0.00 61 1013.2
20260507105411 71 77 0.0 2.0 0.00 0.13 0.00 58 1013.3
20260507104810 70 238 2.0 5.0 0.00 0.13 0.00 59 1013.5
20260507104207 70 242 3.0 6.0 0.00 0.13 0.00 60 1013.6
20260507103609 69 231 3.0 6.0 0.00 0.13 0.00 62 1013.6
20260507103007 69 208 3.0 6.0 0.00 0.13 0.00 58 1013.5
20260507102409 68 234 2.0 4.0 0.00 0.13 0.00 61 1013.8
20260507101807 69 271 1.0 3.0 0.00 0.13 0.00 60 1013.9
20260507101207 70 207 3.0 5.0 0.00 0.13 0.00 59 1013.8
20260507100610 70 232 1.0 2.0 0.00 0.14 0.00 57 1013.9
20260507095407 67 238 0.0 3.0 0.00 0.14 0.00 60 1013.9
20260507094810 69 229 3.0 4.0 0.00 0.14 0.00 60 1013.9
20260507094207 68 314 1.0 3.0 0.00 0.16 0.00 62 1013.9
20260507093607 68 264 1.0 2.0 0.00 0.16 0.00 63 1013.8
20260507093007 67 268 2.0 3.0 0.00 0.16 0.00 64 1013.9
20260507092409 68 269 2.0 4.0 0.00 0.16 0.00 64 1013.9
20260507091807 68 265 2.0 3.0 0.00 0.16 0.00 62 1013.8
20260507091207 67 250 2.0 4.0 0.00 0.16 0.00 62 1013.8
20260507090607 67 245 0.0 0.0 0.00 0.16 0.00 70 1013.9
20260507085407 68 187 1.0 2.0 0.00 0.16 0.00 68 1013.8
20260507084808 66 236 1.0 2.0 0.00 0.16 0.00 70 1013.9
20260507084209 66 238 3.0 5.0 0.00 0.16 0.00 74 1013.8
20260507083607 65 226 1.0 2.0 0.00 0.16 0.00 74 1013.7
20260507083009 67 272 1.0 2.0 0.00 0.16 0.00 73 1013.7
20260507082407 65 286 1.0 3.0 0.00 0.16 0.00 74 1013.7
20260507081809 64 210 0.0 0.0 0.00 0.16 0.00 76 1013.6
20260507081208 64 239 0.0 1.0 0.00 0.16 0.00 81 1013.7
20260507075409 63 233 0.0 2.0 0.00 0.16 0.00 83 1013.6
20260507074808 64 250 2.0 2.0 0.00 0.16 0.00 82 1013.6
20260507074207 64 229 3.0 4.0 0.00 0.16 0.00 82 1013.5
20260507073007 62 227 2.0 5.0 0.00 0.16 0.00 88 1013.5
20260507072410 62 237 1.0 3.0 0.00 0.16 0.00 88 1013.4
20260507071807 63 231 2.0 3.0 0.00 0.16 0.00 87 1013.4
20260507071207 62 243 3.0 4.0 0.00 0.16 0.00 86 1013.3
20260507065410 66 322 1.0 2.0 0.00 0.16 0.00 78 1013.2
20260507064807 66 42 0.0 0.0 0.00 0.16 0.00 78 1013.2
20260507064208 64 53 1.0 3.0 0.00 0.16 0.00 82 1013.2
20260507063009 64 54 0.0 2.0 0.00 0.16 0.00 82 1013.1
20260507062407 65 334 0.0 2.0 0.00 0.16 0.00 82 1013.1
20260507061807 66 276 0.0 0.0 0.00 0.16 0.00 80 1013.1
20260507061207 64 270 0.0 0.0 0.00 0.16 0.00 81 1013.1
20260507055408 60 270 0.0 0.0 0.00 0.16 0.00 92 1013.1
20260507054810 59 270 0.0 0.0 0.00 0.16 0.00 94 1013.0
20260507054207 58 270 0.0 1.0 0.00 0.17 0.00 95 1012.8
20260507053007 57 276 0.0 0.0 0.00 0.17 0.00 96 1012.8
20260507052409 57 276 0.0 2.0 0.00 0.17 0.00 96 1012.8
20260507051809 57 282 0.0 0.0 0.00 0.17 0.00 96 1012.7
20260507051207 57 282 0.0 0.0 0.00 0.17 0.00 96 1012.7
20260507045410 56 282 0.0 0.0 0.00 0.19 0.00 96 1012.6
20260507044807 56 282 0.0 0.0 0.00 0.19 0.00 96 1012.4